This is the latest recevied weather packets stored in our database for station/object XE2RCS-1. If no packets are shown the sender has not sent any weather packets the latest 10 day(s).
| Time | Temp. | Humidity | Pressure | Rain* | Wind** | Luminosity | Snow |
|---|---|---|---|---|---|---|---|
| 1788232439 | 23.89° C | 72% | 1018 hPa | 0 mm | - | - | - |
| 1788231838 | 22.22° C | 60% | 1018 hPa | 0 mm | - | - | - |
| 1788231237 | 22.22° C | 65% | 1016 hPa | 0 mm | - | - | - |
| 1788230636 | 22.22° C | 65% | 1016 hPa | 0 mm | - | - | - |
| 1788230036 | 23.33° C | 61% | 1016 hPa | 0 mm | - | - | - |
| 1788229435 | 23.33° C | 57% | 1017 hPa | 0 mm | - | - | - |
| 1788228835 | 23.33° C | 55% | 1017 hPa | 0 mm | - | - | - |
| 1788228234 | 26.11° C | 46% | 1015 hPa | 0 mm | - | - | - |
| 1788227633 | 26.11° C | 44% | 1015 hPa | 0 mm | - | - | - |
| 1788227033 | 25.56° C | 44% | 1015 hPa | 0 mm | - | - | - |
| 1788226432 | 25.56° C | 45% | 1015 hPa | 0 mm | - | - | - |
| 1788225831 | 25.56° C | 46% | 1016 hPa | 0 mm | - | - | - |
| 1788225230 | 25.56° C | 47% | 1016 hPa | 0 mm | - | - | - |
| 1788224630 | 25.56° C | 46% | 1013 hPa | 0 mm | - | - | - |
| 1788224029 | 26.11° C | 45% | 1014 hPa | 0 mm | - | - | - |
| 1788223429 | 26.11° C | 43% | 1014 hPa | 0 mm | - | - | - |
| 1788222828 | 26.11° C | 41% | 1014 hPa | 0 mm | - | - | - |
| 1788222227 | 26.67° C | 40% | 1016 hPa | 0 mm | - | - | - |
| 1788221627 | 27.22° C | 39% | 1016 hPa | 0 mm | - | - | - |
| 1788221026 | 27.78° C | 38% | 1016 hPa | 0 mm | - | - | - |
| 1788220425 | 27.78° C | 38% | 1014 hPa | 0 mm | - | - | - |
| 1788219824 | 27.78° C | 37% | 1013 hPa | 0 mm | - | - | - |
| 1788219224 | 28.33° C | 36% | 1013 hPa | 0 mm | - | - | - |
| 1788218624 | 28.33° C | 36% | 1012 hPa | 0 mm | - | - | - |
| 1788218023 | 28.33° C | 37% | 1012 hPa | 0 mm | - | - | - |
* Rain latest hour (hover to see other rain measurements)
** Current wind speed in m/s (hover to see current wind gust speed)